STARLINK-34935, 65277

Orbit data source: Space-Track

STARLINK-34935, 65277 is a payload satellite owned by SpaceX/Seattle (US) in SSO that was launched on Fri, 22 Aug 2025 UTC via an FALCON 9 launch vehicle from the Air Force Western Test Range (AFWTR). Payload-class satellites include a variety of spacecraft equipped with specific instruments for various scientific and technological missions. These include communications satellites like Starlink; space stations such as the ISS; scientific satellites like the Hubble; Earth observation satellites from companies like Planet Labs, Umbra, and HawkEye 360; GPS; miniature CubeSats for education and research; and military/defense satellites.

Loading next visibility...
Identifier
65277, 2025-184E
Orbit
SSO
Country
Flag of USUS
Related business
Manufacturer
SpaceX/Seattle
Mission
Operational Commercial Communications
Bus & Motor
STARLINK V2MO, Unknown motor
Mass
575 kg wet, ~530 kg dry
Launch date (UTC)
2025-08-22 (10 months ago)
Launch vehicle
FALCON 9
Launch site
Air Force Western Test Range (AFWTR)
Object type
Payload
Rocket body
Debris
Shape & HBR
Box + 2 Pan, 17.7 m
Radar Cross Section
36.964 m², Large (>1 m²)

Expand to show TLE details & history
Last TLE update: 1 day ago

TLE from 1 day ago
0 STARLINK-34935
1 65277U 25184E   26170.70043085  .00003376  00000-0  23773-3 0  9994
2 65277  97.3380 222.1935 0001694  91.4940 268.6482 15.05662724 46655
Epoch: 2026-06-19T16:48Z
TLE epoch observation values (Epoch: 2026-06-19T16:48:37.225Z)
Latitude
0.00002°
Longitude
62.11275°
Altitude
552.573 km
Speed
7.585 km/s
True Right ascension
14h 48m 46s
True Declination
0° 00' 00"
Sunlit
Object was in full shadow at epoch
Visualization orbit readout
Latitude
Unknown
Longitude
Unknown
Altitude
Unknown
Speed
Unknown
Apparent Right ascension
Unknown
Apparent Declination
Unknown
Sunlit
N/A
Visualization observer readout
Local Sidereal Time
07:21:32
Azimuth
Unknown
Elevation
Unknown
Doppler factor
Unknown
Orbital elements
Apogee altitude
547.627 km
Perigee altitude
545.281 km
Semi-major axis
6,924.591 km
Eccentricity
0.00017
Inclination
97.338°
RAAN
222.1935°
Arg. of periapsis
91.494°
True anomaly
268.62879°
Mean anomaly
268.6482°
Eccentric anomaly
268.6385°
Mean motion
3.76662 °/min
Orbital period
95.58 mins
BSTAR
0.00023773
Loading maneuver chart data...
Computing Atmospheric mass density...
Loading historical data...
Loading historical data...
Loading historical data...
Loading historical data...
Loading historical data...
Loading historical data...
Loading historical data...

Documentation

Showing up to 5 results
|